Overview Statistics Trail Chart Weather Telemetry Raw packets
 

This is the latest recevied weather packets stored in our database for station/object M0JUI-1. If no packets are shown the sender has not sent any weather packets the latest 10 day(s).

<< 77 78 79 80 81 82 83 >>
Time Temp. Humidity Pressure Rain* Wind** Luminosity Snow
1788079772 17.22° C 99% 1008.1 hPa 0 mm - 177 W/m² -
1788079472 16.67° C 99% 1008 hPa 0 mm - 209 W/m² -
1788079161 16.11° C 99% 1008 hPa 0 mm - 162 W/m² -
1788078860 16.11° C 3% 1008 hPa 0 mm - 197 W/m² -
1788078560 15.56° C 12% 1008.1 hPa 0 mm - 124 W/m² -
1788078248 16.11° C 18% 1007.9 hPa 0 mm - 143 W/m² -
1788077948 15.56° C 22% 1008.1 hPa 0 mm - 151 W/m² -
1788077648 15.56° C 25% 1008.1 hPa 0 mm - 155 W/m² -
1788077336 15.56° C 27% 1008.1 hPa 0 mm - 166 W/m² -
1788077036 15° C 28% 1007.9 hPa 0 mm - 97 W/m² -
1788076736 15° C 29% 1008 hPa 0 mm - 96 W/m² -
1788076424 15° C 30% 1008 hPa 0 mm - 112 W/m² -
1788076125 15° C 30% 1008.1 hPa 0 mm - 90 W/m² -
1788075824 14.44° C 31% 1008.2 hPa 0 mm - 88 W/m² -
1788075524 14.44° C 31% 1007.9 hPa 0 mm - 72 W/m² -
1788075225 14.44° C 32% 1008.1 hPa 0 mm - 80 W/m² -
1788074925 14.44° C 31% 1007.8 hPa 0 mm - 89 W/m² -
1788074624 14.44° C 32% 1007.9 hPa 0 mm - 115 W/m² -
1788074325 14.44° C 32% 1007.8 hPa 0 mm - 111 W/m² -
1788074024 14.44° C 32% 1007.9 hPa 0 mm - 97 W/m² -
1788073724 15° C 32% 1008 hPa 0 mm - 101 W/m² -
1788073424 14.44° C 32% 1007.9 hPa 0 mm - 102 W/m² -
1788073121 14.44° C 32% 1007.9 hPa 0 mm - 94 W/m² -
1788072813 14.44° C 32% 1008 hPa 0 mm - 84 W/m² -
1788072512 14.44° C 32% 1007.8 hPa 0 mm - 58 W/m² -

* Rain latest hour (hover to see other rain measurements)
** Current wind speed in m/s (hover to see current wind gust speed)